Regional Weather Roundup
Issued by NWS Boston, MA

Home | Current Version | Previous Version | Text Only | Print | Product List | Glossary On
Versions: 1 2 3 4 5 6 7 8 9 10 11 12 13 14 15 16 17 18 19 20 21 22 23 24 25 26 27 28 29 30 31 32 33 34 35 36 37 38 39 40 41 42 43 44 45 46 47 48 49 50
000
ASUS41 KBOX 010710
RWRBOX

REGIONAL WEATHER ROUNDUP
NATIONAL WEATHER SERVICE TAUNTON MA
300 AM EDT SAT AUG 01 2015

NOTE:  "FAIR" INDICATES FEW OR NO CLOUDS BELOW 12,000 FEET WITH NO
SIGNIFICANT WEATHER AND/OR OBSTRUCTIONS TO VISIBILITY.  THE FOLLOWING
OBSERVATION LOCATIONS DO NOT REPORT PRESENT WEATHER...PROVINCETOWN...
SMITHFIELD...BLOCK ISLAND...KEENE...AND OXFORD.

MAZALL-010800-
EASTERN MASSACHUSETTS

CITY           SKY/WX    TMP DP  RH WIND       PRES   REMARKS
BOSTON         PTCLDY    69  57  65 SW5       29.77F
BEVERLY        CLEAR     64  57  78 CALM      29.76F
LAWRENCE       CLEAR     64  57  78 SW3       29.78F
BEDFORD        CLEAR     61  57  87 CALM      29.76F
BLUE HILL        N/A     71  52  50 SW13      29.79F
NORWOOD        CLEAR     58  56  93 CALM      29.78F
MARSHFIELD     CLEAR     63  59  88 CALM      29.80S
PLYMOUTH       CLEAR     59  58  96 CALM      29.80S
TAUNTON        CLEAR     58  55  90 CALM      29.78F
NEW BEDFORD    CLEAR     63  60  90 CALM      29.78F
$$

MAZALL-010800-
CAPE COD AND THE ISLANDS

CITY           SKY/WX    TMP DP  RH WIND       PRES   REMARKS
FALMOUTH       CLEAR     63  63 100 CALM      29.80S
HYANNIS          N/A     63  60  90 CALM      29.78F
CHATHAM        CLEAR     67  66  97 CALM      29.80S
PROVINCETOWN   CLEAR     68  59  73 SW6       29.79S
NANTUCKET        N/A     70  66  87 W7        29.80S
MARTHAS VNYRD  CLEAR     58  54  86 CALM      29.80S
$$

MAZALL-010800-
CENTRAL AND WESTERN MASSACHUSETTS

CITY           SKY/WX    TMP DP  RH WIND       PRES   REMARKS
WORCESTER      CLEAR     65  54  67 SW9       29.81F
FITCHBURG      CLEAR     62  58  86 CALM      29.78F
ORANGE         MOCLDY    61  58  90 CALM      29.79F
SPRINGFIELD    MOCLDY    63  61  93 NE2       29.76F
WESTFIELD      CLOUDY    65  60  84 CALM      29.77F
NORTH ADAMS    PTCLDY    60  56  86 CALM      29.78F
PITTSFIELD     PTCLDY    59  57  93 CALM      29.79F
$$

RIZALL-010800-
RHODE ISLAND

CITY           SKY/WX    TMP DP  RH WIND       PRES   REMARKS
PROVIDENCE     CLEAR     67  61  81 W3        29.79F
NEWPORT        CLEAR     65  62  90 SE3       29.79F
BLOCK ISLAND     N/A     68  66  94 W8        29.81F
SMITHFIELD     CLEAR     61  57  88 CALM      29.79F
WESTERLY       CLEAR     64  61  90 CALM      29.80F
$$

CTZALL-010800-
CONNECTICUT

CITY           SKY/WX    TMP DP  RH WIND       PRES   REMARKS
BRADLEY INTL   PTCLDY    69  60  73 S6        29.77F
HARTFORD       MOCLDY    69  60  73 S5        29.77F
BRIDGEPORT     CLEAR     73  65  75 CALM      29.79F
DANBURY        PTCLDY    65  58  78 CALM      29.82S
GROTON         CLEAR     66  64  93 CALM      29.79F
NEW HAVEN      CLEAR     67  63  87 CALM      29.79F
CHESTER        NOT AVBL
MERIDEN        CLEAR     64  60  87 CALM      29.79F
WILLIMANTIC    PTCLDY    62  59  90 CALM      29.80F
OXFORD         PTCLDY    68  55  64 CALM      29.82F
$$

MEZ002-015-021-024-NHZ003-005-008-011-012-014-VTZ005-008-010800-
NORTHERN NEW ENGLAND

CITY           SKY/WX    TMP DP  RH WIND       PRES   REMARKS
PORTLAND ME    CLEAR     63  57  81 SW5       29.75S
BANGOR ME      CLEAR     61  58  90 S3        29.73F
CONCORD NH     CLEAR     58  55  90 CALM      29.76F
MANCHESTER NH  PTCLDY    67  58  72 CALM      29.75F
NASHUA NH      CLEAR     62  59  90 CALM      29.77F
PORTSMOUTH NH  PTCLDY    64  57  79 SW1       29.74F
JAFFREY NH     LGT RAIN  59  57  93 CALM      29.80F
KEENE NH       MOCLDY    59  54  82 CALM      29.78F
BURLINGTON VT  CLOUDY    70  56  61 S8        29.71F
MT. WASHINGTON MOCLDY    47  46  96 W32         N/A
$$

NYZ052-076-010800-
EASTERN NEW YORK

CITY           SKY/WX    TMP DP  RH WIND       PRES   REMARKS
ALBANY         PTCLDY    67  58  72 CALM      29.76S
NEW YORK CITY  PTCLDY    80  58  46 SW9       29.79F
$$

ANZALL-010800-
MARINE OBSERVATIONS

STATION/POSITION TIME  TEMP    WIND        PRES    VSBY  WAVE
                       AIR SEA DIR/SP/G                  HT/PER
                 (UTC) (F)     (DEG/KT/KT) (MB)    (MI)  (FT/S)
BOSTON BUOY      0650   71 70  220/  8/ 10 1008.3F         1/ 9
BUZZARDS BAY     0600          240/ 12/ 12 1009.8F
NANTUCKET SOUND  0650   74 74  250/  8/ 10 1008.6S         1
MASS BAY-STELLWA 0604   70 67  260/  4/  4   N/A    1 7/8  1/11
ISLE OF SHOALS   0600   69     240/ 11/ 12 1007.4F
S OF BLOCK IS    0608      73                N/A           4/ 8
$$

......................KEY.........................
  SKY/WX - SKY CONDITION/PRESENT WEATHER
  TMP    - TEMPERATURE IN FAHRENHEIT
  DWPT   - DEWPOINT IN FAHRENHEIT
  RH     - RELATIVE HUMIDITY IN PERCENT
  WIND   - DIRECTION AND SPEED IN MPH
  PRES   - MEAN SEA LEVEL PRESSURE IN INCHES OF HG
  WCI    - WIND CHILL INDEX
  VSB    - VISIBILITY IN MILES
  HX     - HEAT INDEX
  TC     - TEMPERATURE IN CELSIUS
  VRB    - VARIABLE WIND DIRECTION
  N/A    - NOT AVAILABLE



USA.gov is the U.S. government's official web portal to all federal, state and local government web resources and services.